EN

Hourly Weather Acacoyagua

Today, 26 November, Thursday

Time Temperature Precipitation Wind Pressure Humidity
00:00 +24°C° 0 mm 1 mps 731 mmHg 86%
01:00 +24°C° 0 mm 1 mps 731 mmHg 84%
02:00 +24°C° 0 mm 1 mps 731 mmHg 81%
03:00 +23°C° 0 mm 1 mps 730 mmHg 79%
04:00 +23°C° 0 mm 2 mps 730 mmHg 77%
05:00 +23°C° 0 mm 2 mps 730 mmHg 75%
06:00 +23°C° 0 mm 2 mps 731 mmHg 73%
07:00 +25°C° 0 mm 1 mps 731 mmHg 69%
08:00 +27°C° 0 mm 1 mps 731 mmHg 64%
09:00 +29°C° 0 mm 1 mps 732 mmHg 60%
10:00 +30°C° 0 mm 1 mps 732 mmHg 58%
11:00 +31°C° 0 mm 1 mps 731 mmHg 55%
12:00 +32°C° 0 mm 1 mps 731 mmHg 53%
13:00 +32°C° 0.1 mm 1 mps 730 mmHg 58%
14:00 +31°C° 0.1 mm 1 mps 729 mmHg 63%
15:00 +30°C° 0.1 mm 1 mps 729 mmHg 68%
16:00 +29°C° 0.3 mm 1 mps 729 mmHg 75%
17:00 +27°C° 0.3 mm 1 mps 729 mmHg 82%
18:00 +23°C° 0.3 mm 0 mps 729 mmHg 89%
19:00 +25°C° 0.1 mm 1 mps 730 mmHg 89%
20:00 +25°C° 0.1 mm 1 mps 730 mmHg 88%
21:00 +24°C° 0.1 mm 1 mps 731 mmHg 88%
22:00 +24°C° 0 mm 1 mps 731 mmHg 87%
23:00 +24°C° 0 mm 1 mps 731 mmHg 86%

Tomorrow, 27 November, Friday

Time Temperature Precipitation Wind Pressure Humidity
00:00 +24°C° 0 mm 1 mps 731 mmHg 85%
01:00 +24°C° 0 mm 1 mps 730 mmHg 84%
02:00 +24°C° 0 mm 1 mps 730 mmHg 82%
03:00 +24°C° 0 mm 1 mps 730 mmHg 81%
04:00 +24°C° 0 mm 1 mps 730 mmHg 81%
05:00 +24°C° 0 mm 1 mps 730 mmHg 81%
06:00 +24°C° 0 mm 1 mps 730 mmHg 81%
07:00 +26°C° 0 mm 1 mps 731 mmHg 77%
08:00 +27°C° 0 mm 1 mps 731 mmHg 72%
09:00 +29°C° 0 mm 1 mps 731 mmHg 67%
10:00 +30°C° 0.2 mm 1 mps 731 mmHg 66%
11:00 +31°C° 0.2 mm 1 mps 730 mmHg 65%
12:00 +31°C° 0.2 mm 1 mps 730 mmHg 64%
13:00 +31°C° 1 mm 1 mps 729 mmHg 69%
14:00 +30°C° 1 mm 1 mps 729 mmHg 75%
15:00 +29°C° 1 mm 1 mps 728 mmHg 80%
16:00 +28°C° 1.1 mm 1 mps 728 mmHg 83%
17:00 +27°C° 1.1 mm 1 mps 729 mmHg 86%
18:00 +24°C° 1.1 mm 0 mps 729 mmHg 90%
19:00 +25°C° 0.7 mm 1 mps 729 mmHg 90%
20:00 +25°C° 0.7 mm 1 mps 730 mmHg 90%
21:00 +25°C° 0.7 mm 1 mps 731 mmHg 90%
22:00 +25°C° 0 mm 1 mps 730 mmHg 90%
23:00 +24°C° 0 mm 1 mps 730 mmHg 89%

Day after tomorrow, 28 November, Saturday

Time Temperature Precipitation Wind Pressure Humidity
00:00 +24°C° 0 mm 1 mps 730 mmHg 89%
01:00 +24°C° 0 mm 1 mps 730 mmHg 88%
02:00 +24°C° 0 mm 1 mps 730 mmHg 87%
03:00 +24°C° 0 mm 1 mps 729 mmHg 86%
04:00 +24°C° 0 mm 1 mps 729 mmHg 85%
05:00 +24°C° 0 mm 1 mps 729 mmHg 83%
06:00 +24°C° 0 mm 1 mps 730 mmHg 82%
07:00 +25°C° 0 mm 1 mps 730 mmHg 77%
08:00 +25°C° 0 mm 0 mps 731 mmHg 71%
09:00 +27°C° 0 mm 0 mps 731 mmHg 66%
10:00 +30°C° 0 mm 1 mps 731 mmHg 66%
11:00 +30°C° 0 mm 1 mps 730 mmHg 65%
12:00 +31°C° 0 mm 1 mps 730 mmHg 65%
13:00 +30°C° 0.8 mm 1 mps 730 mmHg 70%
14:00 +29°C° 0.8 mm 1 mps 729 mmHg 75%
15:00 +29°C° 0.8 mm 1 mps 728 mmHg 81%
16:00 +28°C° 0.4 mm 1 mps 729 mmHg 84%
17:00 +25°C° 0.4 mm 0 mps 729 mmHg 88%
18:00 +24°C° 0.4 mm 0 mps 729 mmHg 92%
19:00 +23°C° 0.6 mm 0 mps 730 mmHg 92%
20:00 +23°C° 0.6 mm 0 mps 730 mmHg 92%
21:00 +25°C° 0.6 mm 1 mps 731 mmHg 92%
22:00 +24°C° 0.1 mm 1 mps 731 mmHg 92%
23:00 +24°C° 0.1 mm 1 mps 731 mmHg 92%

29 November, Sunday

Time Temperature Precipitation Wind Pressure Humidity
00:00 +24°C° 0.1 mm 1 mps 730 mmHg 92%
01:00 +24°C° 0.1 mm 1 mps 730 mmHg 91%
02:00 +24°C° 0.1 mm 1 mps 730 mmHg 91%
03:00 +24°C° 0.1 mm 1 mps 730 mmHg 90%
04:00 +23°C° 0 mm 1 mps 730 mmHg 90%
05:00 +23°C° 0 mm 1 mps 730 mmHg 89%
06:00 +23°C° 0 mm 1 mps 730 mmHg 89%
07:00 +25°C° 0 mm 1 mps 731 mmHg 83%
08:00 +27°C° 0 mm 1 mps 731 mmHg 77%
09:00 +27°C° 0 mm 0 mps 731 mmHg 71%
10:00 +29°C° 0.1 mm 1 mps 731 mmHg 71%
11:00 +30°C° 0.1 mm 1 mps 731 mmHg 70%
12:00 +30°C° 0.1 mm 1 mps 730 mmHg 69%
13:00 +30°C° 0.7 mm 1 mps 730 mmHg 73%
14:00 +30°C° 0.7 mm 1 mps 729 mmHg 76%
15:00 +29°C° 0.7 mm 1 mps 729 mmHg 79%
16:00 +28°C° 1 mm 1 mps 729 mmHg 84%
17:00 +27°C° 1 mm 1 mps 730 mmHg 88%
18:00 +25°C° 1 mm 1 mps 730 mmHg 92%
19:00 +25°C° 1.2 mm 1 mps 731 mmHg 93%
20:00 +25°C° 1.2 mm 1 mps 731 mmHg 93%
21:00 +24°C° 1.2 mm 1 mps 732 mmHg 93%
22:00 +24°C° 1.2 mm 1 mps 732 mmHg 93%
23:00 +24°C° 1.2 mm 1 mps 732 mmHg 92%

30 November, Monday

Time Temperature Precipitation Wind Pressure Humidity
00:00 +24°C° 1.2 mm 1 mps 732 mmHg 92%
01:00 +24°C° 0.5 mm 1 mps 732 mmHg 91%
02:00 +23°C° 0.5 mm 2 mps 731 mmHg 90%
03:00 +23°C° 0.5 mm 2 mps 731 mmHg 89%
04:00 +23°C° 0 mm 2 mps 731 mmHg 87%
05:00 +23°C° 0 mm 2 mps 732 mmHg 85%
06:00 +23°C° 0 mm 2 mps 732 mmHg 83%
07:00 +25°C° 0 mm 2 mps 732 mmHg 79%
08:00 +26°C° 0 mm 1 mps 732 mmHg 74%
09:00 +28°C° 0 mm 1 mps 733 mmHg 69%
10:00 +29°C° 0 mm 1 mps 732 mmHg 64%
11:00 +30°C° 0 mm 1 mps 732 mmHg 59%
12:00 +31°C° 0 mm 2 mps 732 mmHg 54%
13:00 +31°C° 0 mm 2 mps 731 mmHg 57%
14:00 +31°C° 0 mm 2 mps 731 mmHg 60%
15:00 +30°C° 0 mm 2 mps 730 mmHg 62%
16:00 +29°C° 0.2 mm 2 mps 730 mmHg 70%
17:00 +27°C° 0.2 mm 1 mps 731 mmHg 78%
18:00 +25°C° 0.2 mm 1 mps 731 mmHg 87%
19:00 +25°C° 0.3 mm 1 mps 731 mmHg 86%
20:00 +24°C° 0.3 mm 2 mps 732 mmHg 86%
21:00 +24°C° 0.3 mm 2 mps 733 mmHg 85%
22:00 +24°C° 0 mm 2 mps 733 mmHg 83%
23:00 +24°C° 0 mm 2 mps 732 mmHg 81%

1 December, Tuesday

Time Temperature Precipitation Wind Pressure Humidity
00:00 +23°C° 0 mm 2 mps 732 mmHg 80%
01:00 +23°C° 0 mm 2 mps 732 mmHg 79%
02:00 +22°C° 0 mm 3 mps 732 mmHg 77%
03:00 +22°C° 0 mm 3 mps 731 mmHg 76%
04:00 +22°C° 0 mm 3 mps 731 mmHg 76%
05:00 +21°C° 0 mm 2 mps 731 mmHg 75%
06:00 +21°C° 0 mm 2 mps 732 mmHg 74%
07:00 +24°C° 0 mm 2 mps 732 mmHg 71%
08:00 +25°C° 0 mm 2 mps 732 mmHg 68%
09:00 +27°C° 0 mm 1 mps 733 mmHg 64%
10:00 +28°C° 0 mm 1 mps 732 mmHg 61%
11:00 +29°C° 0 mm 1 mps 732 mmHg 58%
12:00 +30°C° 0 mm 1 mps 731 mmHg 54%
13:00 +30°C° 0 mm 1 mps 731 mmHg 56%
14:00 +30°C° 0 mm 1 mps 730 mmHg 58%
15:00 +30°C° 0 mm 1 mps 730 mmHg 60%
16:00 +28°C° 0 mm 1 mps 730 mmHg 67%
17:00 +26°C° 0 mm 1 mps 730 mmHg 74%
18:00 +24°C° 0 mm 1 mps 730 mmHg 81%
19:00 +24°C° 0 mm 1 mps 731 mmHg 80%
20:00 +24°C° 0 mm 1 mps 731 mmHg 80%
21:00 +23°C° 0 mm 1 mps 731 mmHg 80%
22:00 +23°C° 0 mm 1 mps 731 mmHg 78%
23:00 +23°C° 0 mm 1 mps 731 mmHg 77%
Show more